Time,TemperatureF,DewpointF,PressureIn,WindDirection,WindDirectionDegrees,WindSpeedMPH,WindSpeedGustMPH,Humidity,HourlyPrecipIn,Conditions,Clouds,dailyrainin,SoftwareType,DateUTC
2013-05-09 00:02:00,60.0,59.0,-100.00,East,100,12.0,14.0,97,0.00,,,0.01,,2013-05-09 00:02:00,
2013-05-09 00:21:00,60.0,59.0,-100.00,East,90,11.0,17.0,98,0.00,,,0.01,,2013-05-09 00:21:00,
2013-05-09 00:32:00,60.0,59.0,-100.00,East,95,11.0,14.0,98,0.00,,,0.01,,2013-05-09 00:32:00,
2013-05-09 00:42:00,59.0,59.0,-100.00,East,90,11.0,14.0,98,0.00,,,0.01,,2013-05-09 00:42:00,
2013-05-09 01:22:00,58.0,57.0,-100.00,East,85,10.0,16.0,98,0.00,,,0.01,,2013-05-09 01:22:00,
2013-05-09 01:32:00,58.0,57.0,-100.00,East,80,10.0,16.0,98,0.00,,,0.01,,2013-05-09 01:32:00,
2013-05-09 01:42:00,58.0,57.0,-100.00,ENE,75,9.0,14.0,98,0.00,,,0.01,,2013-05-09 01:42:00,
2013-05-09 01:52:00,57.0,57.0,-100.00,ENE,75,10.0,14.0,98,0.00,,,0.01,,2013-05-09 01:52:00,
2013-05-09 02:02:00,57.0,57.0,-100.00,ENE,60,11.0,13.0,98,0.00,,,0.01,,2013-05-09 02:02:00,
2013-05-09 02:11:00,57.0,57.0,-100.00,ENE,60,12.0,15.0,98,0.00,,,0.01,,2013-05-09 02:11:00,
2013-05-09 02:21:00,57.0,57.0,-100.00,ENE,65,10.0,15.0,99,0.00,,,0.01,,2013-05-09 02:21:00,
2013-05-09 03:43:00,56.0,55.0,-100.00,ENE,65,9.0,14.0,99,0.00,,,0.01,,2013-05-09 03:43:00,
2013-05-09 03:52:00,56.0,55.0,-100.00,ENE,60,11.0,17.0,99,0.00,,,0.01,,2013-05-09 03:52:00,
2013-05-09 04:03:00,56.0,55.0,-100.00,NE,55,13.0,16.0,99,0.00,,,0.01,,2013-05-09 04:03:00,
2013-05-09 04:12:00,56.0,55.0,-100.00,NE,50,12.0,16.0,99,0.00,,,0.01,,2013-05-09 04:12:00,
2013-05-09 04:23:00,56.0,55.0,-100.00,ENE,60,10.0,14.0,99,0.00,,,0.01,,2013-05-09 04:23:00,
2013-05-09 04:33:00,56.0,55.0,-100.00,NE,55,9.0,12.0,99,0.00,,,0.01,,2013-05-09 04:33:00,
2013-05-09 04:43:00,56.0,55.0,-100.00,NE,55,11.0,14.0,99,0.00,,,0.01,,2013-05-09 04:43:00,
2013-05-09 04:52:00,56.0,55.0,-100.00,NE,55,9.0,12.0,99,0.00,,,0.01,,2013-05-09 04:52:00,
2013-05-09 05:02:00,56.0,55.0,-100.00,NE,50,9.0,14.0,99,0.00,,,0.01,,2013-05-09 05:02:00,
2013-05-09 05:12:00,56.0,55.0,-100.00,NE,45,11.0,14.0,99,0.00,,,0.01,,2013-05-09 05:12:00,
2013-05-09 05:22:00,56.0,55.0,-100.00,NE,40,12.0,15.0,99,0.00,,,0.01,,2013-05-09 05:22:00,
2013-05-09 05:32:00,56.0,55.0,-100.00,NE,40,12.0,16.0,99,0.00,,,0.01,,2013-05-09 05:32:00,
2013-05-09 05:42:00,56.0,55.0,-100.00,NE,45,14.0,17.0,99,0.00,,,0.01,,2013-05-09 05:42:00,
2013-05-09 05:51:00,56.0,55.0,-100.00,NE,40,13.0,16.0,99,0.00,,,0.01,,2013-05-09 05:51:00,
2013-05-09 06:02:00,56.0,55.0,-100.00,NE,40,11.0,14.0,99,0.00,,,0.01,,2013-05-09 06:02:00,
2013-05-09 06:11:00,56.0,55.0,-100.00,NE,40,11.0,14.0,99,0.00,,,0.01,,2013-05-09 06:11:00,
2013-05-09 06:21:00,56.0,55.0,-100.00,NE,35,12.0,14.0,99,0.00,,,0.01,,2013-05-09 06:21:00,
2013-05-09 06:32:00,56.0,55.0,-100.00,NNE,30,11.0,14.0,99,0.00,,,0.01,,2013-05-09 06:32:00,
2013-05-09 06:42:00,56.0,55.0,-100.00,NE,35,11.0,14.0,99,0.00,,,0.01,,2013-05-09 06:42:00,
2013-05-09 06:52:00,56.0,55.0,-100.00,NE,40,10.0,12.0,99,0.00,,,0.01,,2013-05-09 06:52:00,
2013-05-09 07:01:00,56.0,55.0,-100.00,NNE,30,10.0,12.0,99,0.00,,,0.01,,2013-05-09 07:01:00,
2013-05-09 07:12:00,56.0,55.0,-100.00,NE,35,10.0,13.0,99,0.00,,,0.01,,2013-05-09 07:12:00,
2013-05-09 07:21:00,56.0,55.0,-100.00,NE,40,10.0,14.0,99,0.00,,,0.01,,2013-05-09 07:21:00,
2013-05-09 07:32:00,56.0,55.0,-100.00,NE,35,10.0,13.0,99,0.00,,,0.01,,2013-05-09 07:32:00,
2013-05-09 07:42:00,56.0,55.0,-100.00,NNE,30,11.0,12.0,99,0.00,,,0.01,,2013-05-09 07:42:00,
2013-05-09 07:52:00,56.0,55.0,-100.00,NE,40,12.0,14.0,99,0.00,,,0.01,,2013-05-09 07:52:00,
2013-05-09 08:02:00,56.0,55.0,-100.00,NE,40,12.0,15.0,99,0.00,,,0.01,,2013-05-09 08:02:00,
2013-05-09 08:11:00,56.0,55.0,-100.00,NE,45,12.0,16.0,99,0.00,,,0.01,,2013-05-09 08:11:00,
2013-05-09 08:21:00,55.0,55.0,-100.00,NE,40,11.0,16.0,99,0.00,,,0.01,,2013-05-09 08:21:00,
2013-05-09 08:32:00,55.0,55.0,-100.00,NE,45,12.0,16.0,99,0.00,,,0.01,,2013-05-09 08:32:00,
2013-05-09 08:41:00,55.0,55.0,-100.00,NE,45,9.0,16.0,99,0.00,,,0.01,,2013-05-09 08:41:00,
2013-05-09 14:21:00,55.0,55.0,-100.00,NE,35,18.0,22.0,99,0.00,,,0.01,,2013-05-09 14:21:00,
2013-05-09 14:32:00,56.0,55.0,-100.00,NNE,25,18.0,24.0,99,0.00,,,0.01,,2013-05-09 14:32:00,
2013-05-09 14:41:00,56.0,55.0,-100.00,NNE,20,22.0,26.0,99,0.00,,,0.01,,2013-05-09 14:41:00,
2013-05-09 14:52:00,56.0,55.0,-100.00,NNE,20,18.0,28.0,99,0.00,,,0.01,,2013-05-09 14:52:00,
2013-05-09 15:52:00,55.0,55.0,-100.00,NE,35,21.0,26.0,99,0.00,,,0.01,,2013-05-09 15:52:00,
2013-05-09 16:03:00,55.0,55.0,-100.00,NE,40,23.0,29.0,99,0.00,,,0.01,,2013-05-09 16:03:00,
2013-05-09 16:42:00,54.0,54.0,-100.00,NNE,30,21.0,31.0,99,0.00,,,0.01,,2013-05-09 16:42:00,
2013-05-09 16:52:00,54.0,54.0,-100.00,NE,35,21.0,28.0,99,0.02,,,0.01,,2013-05-09 16:52:00,
2013-05-09 17:02:00,54.0,54.0,-100.00,NNE,30,20.0,24.0,99,0.01,,,0.01,,2013-05-09 17:02:00,
2013-05-09 17:12:00,54.0,54.0,-100.00,NNE,30,22.0,27.0,99,0.00,,,0.01,,2013-05-09 17:12:00,
2013-05-09 17:32:00,55.0,55.0,-100.00,NE,40,18.0,27.0,99,0.00,,,0.01,,2013-05-09 17:32:00,
2013-05-09 17:55:00,56.0,55.0,-100.00,NE,40,21.0,30.0,99,0.00,,,0.01,,2013-05-09 17:55:00,
2013-05-09 18:01:00,56.0,55.0,-100.00,NE,45,24.0,30.0,99,0.00,,,0.01,,2013-05-09 18:01:00,
2013-05-09 18:12:00,56.0,55.0,-100.00,NE,40,24.0,34.0,99,0.00,,,0.01,,2013-05-09 18:12:00,
2013-05-09 18:21:00,56.0,55.0,-100.00,NE,40,26.0,31.0,99,0.00,,,0.00,,2013-05-09 18:21:00,
2013-05-09 18:31:00,57.0,57.0,-100.00,NE,35,24.0,31.0,98,0.00,,,0.00,,2013-05-09 18:31:00,
2013-05-09 18:52:00,58.0,57.0,-100.00,NE,35,24.0,29.0,97,0.00,,,0.00,,2013-05-09 18:52:00,
2013-05-09 19:01:00,58.0,57.0,-100.00,NE,40,22.0,31.0,97,0.00,,,0.00,,2013-05-09 19:01:00,
2013-05-09 19:11:00,58.0,57.0,-100.00,NE,35,27.0,34.0,97,0.00,,,0.00,,2013-05-09 19:11:00,
2013-05-09 19:21:00,59.0,57.0,-100.00,NE,45,22.0,31.0,96,0.00,,,0.00,,2013-05-09 19:21:00,
2013-05-09 19:31:00,59.0,57.0,-100.00,NE,35,20.0,26.0,96,0.00,,,0.00,,2013-05-09 19:31:00,
2013-05-09 19:41:00,59.0,57.0,-100.00,NE,45,21.0,26.0,95,0.00,,,0.00,,2013-05-09 19:41:00,
2013-05-09 19:52:00,59.0,57.0,-100.00,NE,45,23.0,27.0,95,0.00,,,0.00,,2013-05-09 19:52:00,
2013-05-09 20:01:00,60.0,59.0,-100.00,NE,40,21.0,29.0,92,0.00,,,0.00,,2013-05-09 20:01:00,
2013-05-09 20:11:00,61.0,59.0,-100.00,NE,45,24.0,29.0,91,0.00,,,0.00,,2013-05-09 20:11:00,
2013-05-09 20:22:00,61.0,59.0,-100.00,NE,40,22.0,32.0,90,0.00,,,0.00,,2013-05-09 20:22:00,
2013-05-09 20:32:00,61.0,57.0,-100.00,NE,45,24.0,31.0,89,0.00,,,0.00,,2013-05-09 20:32:00,
2013-05-09 20:42:00,62.0,59.0,-100.00,NE,40,21.0,31.0,89,0.00,,,0.00,,2013-05-09 20:42:00,
2013-05-09 20:52:00,61.0,57.0,-100.00,NNE,30,23.0,31.0,90,0.00,,,0.00,,2013-05-09 20:52:00,
2013-05-09 21:02:00,60.0,57.0,-100.00,NE,40,20.0,29.0,92,0.00,,,0.00,,2013-05-09 21:02:00,
2013-05-09 21:11:00,60.0,57.0,-100.00,NE,45,18.0,28.0,92,0.00,,,0.00,,2013-05-09 21:11:00,
2013-05-09 21:22:00,60.0,57.0,-100.00,NE,40,20.0,26.0,92,0.00,,,0.00,,2013-05-09 21:22:00,
2013-05-09 21:32:00,60.0,57.0,-100.00,NE,40,19.0,24.0,92,0.00,,,0.00,,2013-05-09 21:32:00,
2013-05-09 21:43:00,60.0,57.0,-100.00,NE,35,22.0,27.0,92,0.00,,,0.00,,2013-05-09 21:43:00,
2013-05-09 21:52:00,59.0,57.0,-100.00,NNE,30,21.0,28.0,92,0.00,,,0.00,,2013-05-09 21:52:00,
2013-05-09 22:03:00,59.0,57.0,-100.00,NE,35,19.0,26.0,93,0.00,,,0.00,,2013-05-09 22:03:00,
2013-05-09 22:12:00,59.0,57.0,-100.00,NE,40,21.0,26.0,93,0.00,,,0.00,,2013-05-09 22:12:00,
2013-05-09 22:22:00,60.0,57.0,-100.00,NE,40,19.0,26.0,93,0.00,,,0.00,,2013-05-09 22:22:00,
2013-05-09 22:33:00,60.0,57.0,-100.00,NE,40,20.0,26.0,93,0.00,,,0.00,,2013-05-09 22:33:00,
2013-05-09 22:42:00,60.0,59.0,-100.00,NE,40,21.0,26.0,93,0.00,,,0.00,,2013-05-09 22:42:00,
2013-05-09 22:52:00,60.0,57.0,-100.00,NE,35,21.0,28.0,92,0.00,,,0.00,,2013-05-09 22:52:00,
2013-05-09 23:02:00,60.0,57.0,-100.00,NE,35,18.0,25.0,92,0.00,,,0.00,,2013-05-09 23:02:00,
2013-05-09 23:12:00,60.0,57.0,-100.00,NE,40,19.0,24.0,92,0.00,,,0.00,,2013-05-09 23:12:00,
2013-05-09 23:21:00,61.0,59.0,-100.00,NE,40,18.0,24.0,91,0.00,,,0.00,,2013-05-09 23:21:00,
2013-05-09 23:32:00,60.0,57.0,-100.00,NE,40,21.0,24.0,90,0.00,,,0.00,,2013-05-09 23:32:00,
2013-05-09 23:42:00,60.0,57.0,-100.00,NE,50,18.0,23.0,90,0.00,,,0.00,,2013-05-09 23:42:00,
2013-05-09 23:52:00,60.0,57.0,-100.00,NE,50,16.0,22.0,91,0.00,,,0.00,,2013-05-09 23:52:00,